When you browse on this site, cookies collect data to enhance your experience and personalize the content and advertising you see.
Visit our Privacy Policy to learn more. By continuing to use the site, you agree to this use of cookies and data.
EN

Hourly Weather Nyzhni Petrivtsi

Today, 7 August, Friday

Time Temperature Precipitation Wind Pressure Humidity
00:00 +22°C° 0 mm 1 mps 728 mmHg 83%
01:00 +22°C° 0 mm 1 mps 729 mmHg 84%
02:00 +18°C° 0 mm 1 mps 729 mmHg 94%
03:00 +17°C° 0 mm 2 mps 729 mmHg 96%
04:00 +18°C° 0 mm 1 mps 728 mmHg 93%
05:00 +18°C° 0 mm 1 mps 729 mmHg 91%
06:00 +18°C° 0 mm 1 mps 728 mmHg 90%
07:00 +19°C° 0 mm 1 mps 729 mmHg 90%
08:00 +20°C° 0 mm 2 mps 729 mmHg 88%
09:00 +23°C° 0 mm 2 mps 730 mmHg 84%
10:00 +24°C° 0 mm 2 mps 730 mmHg 79%
11:00 +25°C° 0 mm 2 mps 730 mmHg 78%
12:00 +26°C° 0 mm 2 mps 730 mmHg 76%
13:00 +28°C° 0 mm 3 mps 730 mmHg 75%
14:00 +29°C° 0 mm 3 mps 730 mmHg 72%
15:00 +29°C° 0 mm 3 mps 729 mmHg 66%
16:00 +28°C° 0.1 mm 3 mps 729 mmHg 67%
17:00 +23°C° 5.1 mm 7 mps 729 mmHg 84%
18:00 +24°C° 0.5 mm 1 mps 728 mmHg 79%
19:00 +24°C° 0 mm 2 mps 728 mmHg 80%
20:00 +24°C° 0 mm 2 mps 728 mmHg 84%
21:00 +23°C° 0 mm 2 mps 728 mmHg 87%
22:00 +23°C° 0 mm 2 mps 728 mmHg 85%
23:00 +21°C° 0 mm 2 mps 728 mmHg 86%

Tomorrow, 8 August, Saturday

Time Temperature Precipitation Wind Pressure Humidity
00:00 +22°C° 0 mm 1 mps 728 mmHg 95%
01:00 +21°C° 0 mm 1 mps 728 mmHg 98%
02:00 +21°C° 0 mm 1 mps 728 mmHg 100%
03:00 +21°C° 0 mm 1 mps 728 mmHg 100%
04:00 +21°C° 0 mm 1 mps 728 mmHg 100%
05:00 +21°C° 0 mm 1 mps 728 mmHg 100%
06:00 +21°C° 0 mm 1 mps 728 mmHg 100%
07:00 +21°C° 0 mm 1 mps 728 mmHg 100%
08:00 +20°C° 0 mm 2 mps 728 mmHg 100%
09:00 +21°C° 0 mm 2 mps 729 mmHg 100%
10:00 +21°C° 0 mm 2 mps 729 mmHg 100%
11:00 +23°C° 0 mm 2 mps 729 mmHg 98%
12:00 +22°C° 0 mm 3 mps 729 mmHg 98%
13:00 +24°C° 0 mm 3 mps 728 mmHg 96%
14:00 +23°C° 0 mm 4 mps 728 mmHg 96%
15:00 +23°C° 0 mm 4 mps 728 mmHg 95%
16:00 +25°C° 0 mm 3 mps 727 mmHg 92%
17:00 +24°C° 1.1 mm 3 mps 727 mmHg 95%
18:00 +24°C° 2.9 mm 3 mps 727 mmHg 95%
19:00 +24°C° 0.5 mm 2 mps 727 mmHg 94%
20:00 +23°C° 0 mm 2 mps 727 mmHg 97%
21:00 +22°C° 0 mm 1 mps 727 mmHg 98%
22:00 +21°C° 0 mm 2 mps 727 mmHg 100%
23:00 +20°C° 0 mm 2 mps 727 mmHg 100%

Day after tomorrow, 9 August, Sunday

Time Temperature Precipitation Wind Pressure Humidity
00:00 +20°C° 0 mm 2 mps 728 mmHg 100%
01:00 +21°C° 0 mm 1 mps 727 mmHg 100%
02:00 +21°C° 0 mm 1 mps 727 mmHg 100%
03:00 +19°C° 0 mm 2 mps 727 mmHg 100%
04:00 +20°C° 0 mm 1 mps 727 mmHg 100%
05:00 +20°C° 0 mm 1 mps 727 mmHg 100%
06:00 +18°C° 0 mm 0 mps 727 mmHg 100%
07:00 +20°C° 0 mm 1 mps 727 mmHg 100%
08:00 +20°C° 0 mm 1 mps 727 mmHg 100%
09:00 +21°C° 0 mm 1 mps 727 mmHg 99%
10:00 +22°C° 0 mm 1 mps 728 mmHg 97%
11:00 +22°C° 0.4 mm 1 mps 727 mmHg 94%
12:00 +23°C° 0.9 mm 2 mps 728 mmHg 90%
13:00 +24°C° 1 mm 3 mps 727 mmHg 93%
14:00 +24°C° 0.7 mm 3 mps 727 mmHg 92%
15:00 +24°C° 0.7 mm 3 mps 726 mmHg 89%
16:00 +24°C° 0.6 mm 3 mps 726 mmHg 86%
17:00 +24°C° 0.2 mm 3 mps 726 mmHg 87%
18:00 +24°C° 0.2 mm 2 mps 726 mmHg 84%
19:00 +23°C° 0 mm 2 mps 726 mmHg 91%
20:00 +22°C° 0 mm 1 mps 726 mmHg 95%
21:00 +22°C° 0 mm 1 mps 726 mmHg 96%
22:00 +21°C° 0 mm 1 mps 726 mmHg 98%
23:00 +21°C° 0 mm 1 mps 726 mmHg 99%

10 August, Monday

Time Temperature Precipitation Wind Pressure Humidity
00:00 +20°C° 0 mm 1 mps 726 mmHg 99%
01:00 +20°C° 0 mm 1 mps 726 mmHg 98%
02:00 +20°C° 0 mm 1 mps 726 mmHg 97%
03:00 +20°C° 0 mm 1 mps 725 mmHg 96%
04:00 +18°C° 0 mm 2 mps 725 mmHg 98%
05:00 +19°C° 0 mm 1 mps 725 mmHg 98%
06:00 +19°C° 0 mm 1 mps 725 mmHg 98%
07:00 +20°C° 0 mm 1 mps 726 mmHg 100%
08:00 +19°C° 0 mm 2 mps 726 mmHg 100%
09:00 +20°C° 0 mm 2 mps 726 mmHg 98%
10:00 +21°C° 0 mm 3 mps 727 mmHg 96%
11:00 +22°C° 0 mm 3 mps 726 mmHg 93%
12:00 +23°C° 0 mm 4 mps 726 mmHg 91%
13:00 +23°C° 0 mm 4 mps 726 mmHg 90%
14:00 +25°C° 0 mm 4 mps 725 mmHg 90%
15:00 +25°C° 0 mm 4 mps 725 mmHg 84%
16:00 +25°C° 0 mm 4 mps 725 mmHg 87%
17:00 +25°C° 0 mm 3 mps 725 mmHg 85%
18:00 +24°C° 0 mm 3 mps 725 mmHg 87%
19:00 +24°C° 0 mm 2 mps 725 mmHg 91%
20:00 +21°C° 0 mm 2 mps 725 mmHg 97%
21:00 +22°C° 0 mm 1 mps 725 mmHg 97%
22:00 +21°C° 1.6 mm 1 mps 726 mmHg 99%
23:00 +21°C° 0 mm 1 mps 726 mmHg 98%

11 August, Tuesday

Time Temperature Precipitation Wind Pressure Humidity
00:00 +21°C° 0 mm 1 mps 726 mmHg 97%
01:00 +21°C° 0 mm 1 mps 726 mmHg 100%
02:00 +20°C° 0 mm 1 mps 726 mmHg 100%
03:00 +20°C° 0 mm 1 mps 726 mmHg 100%
04:00 +20°C° 0 mm 1 mps 726 mmHg 100%
05:00 +20°C° 0 mm 1 mps 726 mmHg 100%
06:00 +20°C° 0 mm 1 mps 726 mmHg 100%
07:00 +19°C° 0 mm 2 mps 726 mmHg 100%
08:00 +19°C° 0 mm 2 mps 726 mmHg 99%
09:00 +20°C° 0 mm 2 mps 726 mmHg 97%
10:00 +20°C° 0 mm 2 mps 727 mmHg 96%
11:00 +21°C° 0 mm 3 mps 727 mmHg 93%
12:00 +22°C° 0 mm 3 mps 727 mmHg 92%
13:00 +22°C° 0 mm 3 mps 727 mmHg 91%
14:00 +22°C° 0 mm 3 mps 726 mmHg 87%
15:00 +24°C° 0 mm 3 mps 726 mmHg 85%
16:00 +24°C° 0 mm 2 mps 726 mmHg 85%
17:00 +23°C° 0 mm 2 mps 726 mmHg 85%
18:00 +22°C° 0 mm 3 mps 726 mmHg 89%
19:00 +21°C° 0 mm 2 mps 726 mmHg 92%
20:00 +22°C° 0 mm 1 mps 726 mmHg 96%
21:00 +19°C° 0 mm 0 mps 726 mmHg 97%
22:00 +21°C° 0 mm 1 mps 726 mmHg 98%
23:00 +20°C° 0 mm 1 mps 726 mmHg 100%

12 August, Wednesday

Time Temperature Precipitation Wind Pressure Humidity
00:00 +20°C° 0 mm 1 mps 726 mmHg 100%
01:00 +19°C° 0 mm 1 mps 726 mmHg 100%
02:00 +19°C° 0 mm 1 mps 726 mmHg 100%
03:00 +19°C° 0 mm 1 mps 726 mmHg 100%
04:00 +19°C° 0.9 mm 1 mps 725 mmHg 100%
05:00 +18°C° 1.4 mm 1 mps 726 mmHg 100%
06:00 +18°C° 0 mm 1 mps 726 mmHg 100%
07:00 +18°C° 0 mm 1 mps 726 mmHg 100%
08:00 +17°C° 0 mm 3 mps 726 mmHg 100%
09:00 +17°C° 0 mm 3 mps 726 mmHg 100%
10:00 +17°C° 0 mm 4 mps 727 mmHg 99%
11:00 +17°C° 0 mm 4 mps 727 mmHg 99%
12:00 +18°C° 0 mm 3 mps 727 mmHg 97%
13:00 +19°C° 0 mm 3 mps 727 mmHg 95%
14:00 +19°C° 0 mm 4 mps 726 mmHg 97%
15:00 +20°C° 0 mm 4 mps 726 mmHg 93%
16:00 +20°C° 0 mm 4 mps 726 mmHg 90%
17:00 +20°C° 0 mm 3 mps 726 mmHg 91%
18:00 +20°C° 0 mm 3 mps 726 mmHg 90%
19:00 +19°C° 0 mm 3 mps 726 mmHg 91%
20:00 +18°C° 0 mm 2 mps 726 mmHg 99%
21:00 +17°C° 0 mm 2 mps 727 mmHg 100%
22:00 +17°C° 0 mm 2 mps 726 mmHg 100%
23:00 +16°C° 0.1 mm 2 mps 727 mmHg 100%
Show more